ROMMA est une association bénévole à but non lucratif. Votre soutien est indispensable : ADHERER à ROMMA ou FAIRE un DON

Chambon - (38, Isère)

Oisans (2460 m)   Longitude: 06° 10' 42" E   Latitude: 45° 01' 32" N Station partenaire n°803
 

Détail journalier du     <<     >>

Température Humidité Vent Dir Rafale Dir. rafale Neige 1 Neige 2
Heure (°C) (%) (km/h) (km/h) (cm) (cm)
01:00 -1.47914NE51NE165219
02:00 -1.27911NE32NE165219
03:00 -1.38010NE38NE165219
04:00 -1.2795SO11SO165219
05:00 -1.1796SO13SO1650
06:00 -1.1794SO16NNO165219
07:00 -0.7762NNE17NNE165218
08:00 0.3715NNE15NNE165218
09:00 1.2674OSO12OSO165218
10:00 0.003OSO12OSO00
11:00 2.2662S9S165218
12:00 3.5633N11ENE164218
13:00 4.8603NE18NE164218
14:00 1.87712NE32ENE164217
15:00 2.9728NE26NE163217
16:00 1.67811NE24NE163216
17:00 2.0867NE19NE162216
18:00 0.003NE14NE00
19:00 2.2804NE24NE163216
20:00 -0.1935NE12NE163216
21:00 -0.2965NE12NE162216
22:00 0.001E8E00
23:00 0.1913ENE19OSO161216
minuit 0.6836S32S163217

Graphique du 23-04-2019

 

Serveur OMMA